13:42
Airports
History
Links
Donate
Help keep this website running!
PayPal
Bitcoin
This page is community maintained. The information is intended for PC simulator navigation or reference.
Always use approved charts for navigation.
LIQW
Sarzana Luni
Sarzana Luni (LIQW)
Sarzana, Liguria, Italy (19038)
(U)
Lat/Lng:44° 5' 14" N / 9° 59' 18" E
44.087223 / 9.988333
Elevation:47'ft / 14mMSL
ID / ICAO:LIQW
Runways:1
Longest:36-18
Asphalt 901m / 2,957ft
METAR12:55 GMT 2017-11-20
Altimeter: 30.12
Visibility: 6.2 statute miles
Wind: 3 knots (from 150°)
Temp: 16°c / 61°f
Humidity: 29.0%

METAR: LIQW 201255Z 15003KT CAVOK 16/M02 Q1020

(Powered by phpweather)
Nearby VORs <50NM
Nearby NDBs
Runway 36 / 18
Dimensions:901.2 x 22.9m 2957' x 75'ft
Surface:Asphalt
Runway 36 [A]Runway 18 [B]
Heading:000°TH 180°TH
Lat:
Lng:
44° 4' 59.43"N
9° 59' 18"E
44° 5' 28.58"N
9° 59' 18"E
User Notes and Comments
44° 5' 14" N / 9° 59' 18" E
Distance To
Airport ID:
Nearby Airports
4 Massa Cinquale 10.4 NM
LILQ SE 132°
(U) Lucca Tassignano 34.4 NM
LIQL ESE 121°
(C) PISA 34.4 NM
LIRP ( WX ) SE 144°
4 Pavullo 44.8 NM
LIDP ENE 68°
(C) PARMA 53.3 NM
LIMP NNE 16°
(U) REGGIO EMILIA 53.8 NM
LIDE NE 38°
(R) Modena Marzaglia 55.7 NM
LIPM NE 47°
VFR Chart
Flight Planning at SkyVector.com